Wind_Speed
16 13 10 7 3 3 5 7 9 12 15 16 19 23 25 28 29 30 27 24 22 18 16 13 13 14 15 15 14 15 14 14 9 13 14 14 12 10 6 4 4 5 7 7 7
20 17 15 11 7 4 3 4 6 7 11 12 14 17 20 23 26 28 30 30 28 25 21 17 14 13 14 14 15 14 14 16 13 10 10 12 14 11 9 6 4 5 5 5 4
23 20 18 15 12 9 6 4 4 5 6 9 11 12 15 18 21 25 28 30 31 29 26 23 18 16 14 12 12 12 14 14 14 9 9 12 13 13 11 8 7 8 8 7 8
26 23 20 18 16 13 10 7 4 4 5 6 8 9 10 12 16 19 23 26 29 30 28 25 24 21 20 18 17 16 16 16 16 11 9 14 14 13 13 13 11 10 11 11 10
31 28 24 22 19 17 14 11 8 5 5 6 7 7 8 9 12 15 19 22 26 28 27 25 25 24 22 22 18 16 16 16 14 16 13 14 15 16 14 14 14 12 9 8 9
36 32 29 26 23 21 19 16 12 9 7 8 8 8 8 8 9 11 14 18 22 25 27 27 25 23 20 21 20 16 15 16 15 17 19 16 17 17 17 15 15 14 12 8 7
42 38 34 31 29 26 23 21 18 13 11 11 11 10 11 10 9 11 12 15 18 22 25 27 26 24 23 23 20 19 17 16 16 16 20 18 16 17 19 19 16 16 14 9 8
47 43 40 36 34 30 27 25 22 19 15 14 14 13 13 14 13 11 11 13 17 20 25 28 32 28 26 26 26 27 23 18 16 15 16 18 16 16 17 19 19 18 17 14 10
52 48 45 41 38 35 32 29 27 24 20 18 17 16 17 16 16 13 13 13 16 19 23 27 32 33 29 29 30 30 26 20 14 13 15 17 16 17 18 18 18 22 19 18 14
55 53 50 46 43 39 36 33 31 28 26 23 20 20 19 20 19 17 15 15 16 19 23 26 31 36 33 31 31 32 31 22 16 12 15 16 15 17 17 17 16 18 22 20 16
57 55 53 50 47 44 41 38 36 33 31 27 23 21 22 22 21 20 18 16 17 20 23 26 30 34 36 31 32 31 33 24 21 15 10 13 12 16 16 16 17 17 19 21 18
61 58 56 53 50 48 46 43 40 38 34 30 27 24 25 25 24 22 21 19 18 20 23 26 29 32 36 34 34 32 33 27 21 18 12 10 14 16 17 18 17 19 17 17 17
66 61 58 55 54 52 50 48 44 41 38 35 31 29 27 27 28 25 23 21 21 21 23 25 29 32 35 37 36 32 31 29 21 17 15 10 14 20 18 18 19 20 16 13 14
68 65 62 58 56 55 53 50 48 45 42 39 34 32 31 30 28 27 25 23 22 22 24 26 28 32 34 37 39 32 29 30 25 18 17 12 13 19 20 17 18 20 16 12 14
72 68 65 62 60 58 56 53 51 49 46 42 38 37 35 34 31 32 29 26 26 25 26 28 29 32 34 36 37 34 29 29 28 21 15 15 12 18 21 18 19 18 16 17 17
77 73 69 66 64 61 58 56 54 52 49 45 42 40 39 38 35 35 33 30 30 28 28 30 30 32 33 36 36 36 32 29 28 24 18 17 15 14 19 20 23 21 21 21 19
81 77 73 70 69 65 62 59 57 55 52 48 46 44 43 42 41 38 36 34 33 31 31 32 33 35 34 38 38 38 35 32 28 25 23 21 20 20 20 22 24 26 27 26 23
87 84 80 75 74 70 67 63 60 61 56 52 50 49 48 46 45 42 42 39 37 35 34 34 36 37 37 40 41 40 39 36 32 28 25 26 25 25 25 26 27 28 30 32 31
93 90 85 82 80 76 71 67 68 66 60 57 54 52 51 50 49 47 45 44 41 37 38 38 39 39 40 41 44 44 41 37 33 30 28 29 30 28 27 28 29 32 33 34 35
95 93 89 87 85 82 76 74 74 69 66 64 61 57 55 53 51 50 46 47 43 41 41 40 43 42 42 44 44 46 45 41 36 34 31 31 30 29 29 31 33 36 38 40 41
96 95 92 90 88 85 79 79 80 75 71 68 65 61 59 56 54 52 51 48 45 44 44 45 46 46 46 47 48 48 49 46 39 35 35 36 34 31 30 33 36 39 41 43 44
97 97 94 92 90 85 83 84 83 78 75 72 69 64 61 60 58 54 55 51 49 47 47 49 49 49 52 50 51 51 54 51 44 40 41 40 41 35 35 37 38 43 45 48 48
98 96 97 94 91 88 86 85 84 81 78 74 69 66 63 63 62 57 55 55 54 52 51 53 52 55 55 53 53 52 54 53 48 46 44 44 46 45 40 41 44 46 48 50 51
101 98 98 96 93 92 88 85 84 83 79 73 70 68 67 64 66 61 58 57 56 56 56 57 56 59 59 58 58 59 60 57 51 47 45 46 47 51 52 51 49 49 51 53 54
103 101 97 97 95 94 92 89 86 86 82 75 74 71 70 68 68 66 64 62 61 59 59 61 62 63 61 59 62 66 65 63 59 53 48 47 49 54 54 56 55 54 56 57 57
105 103 101 98 98 97 95 92 91 90 87 81 79 78 76 73 72 73 70 67 65 65 64 65 66 67 65 65 67 68 66 68 65 59 55 50 51 54 57 58 57 57 59 59 59
101 105 105 101 98 98 98 95 93 93 90 86 82 80 80 77 75 75 75 73 71 71 71 72 71 70 69 69 67 66 67 70 68 63 61 60 59 59 62 60 59 58 59 62 64
Wind_Direction
228 237 248 268 310 11 10 17 39 56 62 62 60 60 62 63 61 59 57 52 50 51 50 39 19 7 7 12 11 18 4 346 15 33 16 353 344 331 353 4 9 26 36 27 27
229 231 240 254 268 283 328 358 14 36 50 58 56 55 58 60 60 54 51 50 47 46 43 42 35 19 10 4 4 3 357 349 1 17 359 329 318 317 321 319 347 354 8 17 4
228 230 236 244 256 267 272 304 350 7 23 40 42 50 53 57 60 52 49 45 43 41 38 36 34 31 25 11 2 352 346 344 344 352 333 313 306 311 303 290 306 314 325 327 326
226 227 230 235 249 257 261 270 296 328 354 4 18 27 40 45 54 52 47 43 38 37 35 32 25 19 15 9 355 346 337 334 337 326 320 308 316 319 322 327 324 313 298 300 315
226 229 228 233 243 252 255 260 270 285 310 337 356 4 18 24 36 42 40 42 38 35 30 27 21 17 11 5 356 337 321 311 311 306 310 302 312 316 327 324 321 316 310 304 293
228 230 231 235 240 247 254 254 256 263 279 298 318 337 348 355 3 19 26 29 35 31 28 23 18 17 12 3 360 343 322 307 302 299 298 300 306 312 318 320 323 322 323 313 294
229 231 232 236 241 244 249 253 252 257 267 276 294 313 327 333 334 348 4 13 20 22 23 19 13 13 8 7 5 350 335 315 302 291 290 298 297 297 307 316 322 319 321 320 321
230 230 234 238 239 243 245 252 255 252 258 265 277 293 308 317 321 321 340 356 4 9 12 11 9 12 8 3 1 1 350 335 310 292 283 284 289 285 294 304 315 319 318 324 325
230 232 234 237 239 242 244 249 252 254 252 257 265 280 296 302 312 312 318 336 350 355 2 5 4 8 4 2 359 359 353 349 337 302 280 275 281 280 288 296 310 316 320 317 312
228 231 233 236 239 241 243 247 251 252 249 250 254 270 285 295 302 304 305 318 334 341 352 358 360 4 2 1 359 357 354 355 355 320 293 282 278 279 286 295 302 307 312 306 297
227 229 232 234 237 239 241 245 248 249 248 248 250 260 277 286 296 299 299 302 320 329 340 350 352 0 0 358 0 357 359 359 1 350 308 288 285 278 290 293 290 297 298 300 296
227 228 230 232 234 237 240 243 245 248 247 245 251 259 275 285 290 296 294 295 306 318 331 339 340 353 358 357 359 358 357 359 0 358 342 302 289 286 282 280 288 288 284 281 291
228 228 229 230 232 235 239 242 244 245 245 244 250 257 270 279 285 293 288 290 296 307 316 324 332 345 352 352 353 357 353 354 354 347 350 327 292 285 288 288 289 285 279 272 275
228 228 229 230 232 234 237 241 242 243 242 243 250 258 266 272 279 287 283 284 289 292 302 316 325 335 344 346 348 351 351 349 350 341 345 335 298 283 289 289 285 282 283 269 265
227 228 229 230 232 235 237 239 239 241 241 245 249 257 262 270 276 283 282 279 284 291 298 310 317 324 334 340 344 345 346 345 349 346 338 320 304 298 298 291 280 278 279 277 270
225 227 229 230 232 234 236 238 237 239 241 244 250 255 260 267 270 276 281 278 278 285 292 301 308 313 323 330 337 340 340 340 345 341 332 309 299 283 279 283 287 289 288 285 281
225 226 228 230 232 233 235 237 237 238 241 244 251 255 260 263 267 274 278 275 274 280 286 293 299 306 314 320 330 335 335 335 337 339 333 312 298 292 288 287 285 288 291 288 292
225 227 228 230 232 233 234 238 237 238 243 246 250 254 258 262 267 272 275 272 270 275 279 285 292 301 307 313 320 328 332 330 329 330 329 325 303 291 293 290 286 286 283 283 285
225 227 228 230 232 233 235 237 238 240 242 245 247 252 257 261 266 270 271 269 268 272 275 280 288 295 301 305 312 319 325 325 321 319 323 321 313 299 287 284 283 282 280 279 278
224 227 228 230 232 233 234 237 239 240 242 245 248 252 255 259 263 266 267 266 267 269 272 278 282 287 294 298 303 310 316 318 316 314 317 317 313 305 294 286 285 282 283 283 280
225 226 227 229 231 233 234 237 239 240 242 245 248 251 255 256 258 260 261 263 264 268 273 276 279 283 286 293 295 302 310 314 312 311 313 312 314 312 299 291 288 287 283 282 282
225 227 227 229 231 232 233 235 238 239 242 245 248 250 251 254 254 257 260 263 264 268 270 273 276 278 282 287 291 298 306 311 310 310 310 309 309 312 306 297 289 283 281 281 283
226 228 229 230 231 232 234 236 239 241 241 243 245 246 248 250 253 257 257 263 266 266 268 271 276 280 281 282 288 293 297 303 306 306 303 304 304 305 301 293 287 284 284 282 283
227 226 229 230 231 233 234 235 238 239 240 242 242 243 245 250 255 258 257 258 262 268 271 274 275 278 281 285 289 293 296 299 302 299 298 297 297 298 301 297 289 285 283 283 283
228 226 228 230 230 232 233 235 237 239 239 238 240 241 242 246 251 256 256 257 260 262 266 269 271 274 276 279 284 291 294 297 297 299 298 292 291 293 296 295 292 288 287 286 285
228 227 228 229 230 232 233 234 235 238 240 239 240 243 244 244 248 254 255 258 261 263 263 265 267 270 273 275 281 288 291 292 296 299 295 295 288 290 296 296 291 288 287 286 287
226 227 226 229 230 231 233 234 236 238 240 241 240 242 246 249 250 251 255 257 258 260 262 263 264 268 273 276 280 287 286 289 294 295 298 298 292 293 297 294 290 288 286 287 289
Height
10993 10995 10996 10997 10998 10998 10998 10997 10996 10996 10996 10996 10996 10996 10995 10994 10993 10991 10989 10988 10987 10986 10986 10984 10982 10980 10979 10978 10978 10975 10972 10970 10967 10966 10966 10967 10968 10968 10968 10966 10963 10962 10961 10959 10958
10991 10993 10994 10996 10997 10997 10998 10998 10997 10997 10997 10997 10997 10997 10997 10996 10995 10993 10992 10990 10989 10987 10986 10985 10983 10982 10979 10978 10977 10975 10973 10970 10967 10965 10967 10968 10967 10968 10966 10966 10963 10962 10961 10960 10958
10987 10990 10992 10994 10995 10996 10997 10997 10997 10997 10997 10997 10997 10997 10997 10997 10997 10995 10993 10992 10990 10989 10987 10986 10985 10984 10982 10981 10978 10976 10973 10970 10967 10965 10966 10967 10967 10965 10964 10964 10963 10961 10959 10957 10956
10983 10986 10989 10991 10993 10994 10995 10996 10996 10996 10996 10997 10997 10997 10997 10997 10998 10997 10995 10994 10992 10990 10988 10986 10985 10983 10981 10979 10976 10973 10971 10969 10967 10964 10965 10964 10963 10962 10961 10959 10959 10959 10957 10956 10955
10978 10982 10985 10987 10989 10991 10992 10994 10995 10995 10995 10996 10996 10996 10996 10996 10996 10997 10996 10995 10994 10992 10990 10988 10986 10983 10981 10978 10975 10973 10971 10969 10968 10964 10964 10962 10961 10959 10957 10957 10955 10955 10955 10954 10953
10972 10976 10980 10983 10986 10987 10989 10991 10992 10994 10993 10994 10994 10994 10994 10995 10995 10995 10994 10995 10995 10994 10991 10989 10987 10985 10983 10980 10976 10973 10970 10967 10965 10961 10959 10959 10956 10954 10954 10954 10952 10952 10952 10952 10951
10966 10970 10974 10977 10980 10983 10985 10987 10989 10991 10992 10992 10992 10992 10992 10993 10993 10994 10993 10993 10992 10992 10992 10990 10988 10986 10983 10980 10977 10974 10969 10964 10961 10959 10954 10954 10954 10951 10950 10949 10949 10949 10948 10949 10948
10959 10963 10967 10971 10974 10977 10980 10982 10985 10987 10988 10989 10990 10990 10990 10990 10990 10991 10992 10991 10990 10989 10988 10987 10985 10982 10979 10976 10974 10970 10965 10959 10956 10954 10952 10951 10951 10950 10948 10946 10945 10944 10944 10944 10945
10951 10956 10960 10965 10968 10971 10974 10977 10980 10982 10984 10985 10986 10987 10987 10987 10987 10988 10988 10988 10988 10986 10985 10983 10981 10979 10975 10971 10968 10965 10961 10956 10952 10950 10948 10946 10947 10946 10945 10945 10944 10940 10940 10941 10941
10942 10948 10952 10957 10961 10965 10968 10972 10974 10977 10979 10981 10982 10982 10983 10983 10983 10984 10985 10985 10984 10983 10982 10980 10979 10976 10972 10969 10966 10960 10957 10953 10950 10947 10944 10943 10944 10943 10943 10942 10943 10942 10938 10937 10939
10933 10939 10944 10949 10953 10958 10961 10964 10967 10970 10973 10976 10978 10979 10979 10980 10980 10980 10981 10981 10981 10979 10978 10976 10975 10975 10972 10968 10963 10959 10955 10952 10948 10945 10943 10941 10941 10940 10940 10940 10940 10940 10939 10934 10934
10922 10929 10935 10940 10945 10950 10952 10955 10959 10962 10966 10970 10972 10975 10975 10976 10977 10977 10977 10977 10978 10976 10975 10974 10973 10972 10970 10965 10963 10958 10954 10951 10947 10944 10942 10939 10937 10937 10937 10937 10937 10937 10937 10934 10932
10911 10918 10925 10931 10936 10940 10943 10947 10951 10956 10960 10963 10966 10969 10971 10972 10972 10974 10974 10974 10974 10973 10973 10972 10969 10968 10966 10963 10960 10957 10952 10949 10946 10944 10942 10940 10936 10932 10934 10934 10933 10933 10933 10931 10929
10899 10907 10914 10920 10925 10929 10933 10938 10943 10948 10951 10955 10959 10962 10965 10966 10967 10969 10969 10970 10970 10970 10969 10968 10965 10964 10963 10961 10957 10956 10951 10947 10945 10942 10939 10939 10936 10931 10930 10932 10931 10929 10928 10928 10927
10887 10894 10902 10909 10913 10918 10924 10929 10934 10938 10943 10948 10952 10954 10957 10960 10962 10961 10963 10965 10964 10964 10963 10962 10961 10960 10959 10958 10955 10953 10950 10946 10942 10940 10939 10935 10934 10931 10927 10929 10927 10926 10925 10924 10924
10874 10882 10889 10896 10902 10907 10913 10918 10925 10929 10934 10939 10943 10947 10949 10952 10955 10955 10956 10958 10958 10958 10958 10956 10956 10956 10955 10953 10953 10951 10947 10944 10940 10937 10936 10934 10932 10930 10927 10925 10922 10920 10919 10918 10918
10860 10869 10876 10883 10889 10895 10901 10907 10914 10919 10925 10931 10934 10937 10941 10944 10946 10948 10950 10951 10952 10952 10951 10950 10949 10949 10950 10948 10947 10946 10943 10940 10938 10935 10932 10928 10927 10926 10924 10921 10918 10915 10913 10911 10910
10845 10854 10863 10872 10875 10882 10889 10897 10904 10906 10915 10922 10925 10928 10930 10934 10937 10941 10941 10943 10944 10944 10945 10944 10943 10942 10942 10941 10940 10940 10937 10935 10933 10932 10929 10925 10921 10919 10917 10915 10914 10911 10908 10905 10904
10829 10838 10849 10857 10859 10869 10879 10888 10888 10896 10905 10909 10915 10919 10922 10925 10928 10931 10932 10932 10935 10938 10937 10937 10935 10935 10934 10934 10933 10932 10932 10930 10928 10927 10924 10920 10915 10913 10912 10910 10908 10905 10902 10900 10897
10811 10822 10835 10838 10846 10857 10868 10872 10874 10884 10893 10898 10904 10910 10913 10915 10917 10920 10923 10922 10924 10928 10928 10929 10926 10927 10928 10927 10928 10926 10925 10924 10923 10920 10919 10916 10912 10908 10905 10901 10898 10894 10892 10889 10888
10796 10806 10818 10823 10832 10843 10856 10856 10858 10872 10880 10886 10893 10899 10903 10905 10906 10909 10912 10914 10916 10918 10918 10918 10918 10918 10918 10920 10919 10919 10917 10916 10915 10914 10911 10908 10905 10903 10899 10895 10891 10887 10882 10879 10877
10779 10789 10800 10808 10817 10829 10835 10837 10843 10859 10867 10874 10880 10887 10891 10892 10894 10899 10899 10902 10905 10908 10909 10908 10908 10909 10908 10911 10909 10909 10906 10905 10905 10904 10900 10899 10895 10895 10891 10887 10884 10878 10874 10870 10870
10760 10773 10781 10792 10803 10811 10816 10823 10832 10843 10852 10860 10869 10872 10876 10877 10880 10888 10891 10890 10892 10895 10897 10896 10898 10896 10897 10900 10900 10901 10899 10898 10897 10894 10891 10888 10884 10881 10883 10878 10873 10868 10865 10862 10861
10739 10754 10763 10775 10785 10793 10802 10807 10816 10823 10835 10847 10853 10859 10862 10864 10865 10873 10878 10882 10882 10879 10880 10880 10884 10882 10880 10882 10884 10885 10886 10888 10888 10886 10884 10879 10875 10869 10866 10864 10863 10860 10855 10852 10850
10716 10734 10744 10758 10766 10775 10783 10792 10799 10802 10816 10832 10835 10842 10849 10853 10853 10856 10860 10865 10869 10872 10872 10871 10869 10868 10871 10873 10874 10875 10873 10874 10872 10874 10873 10869 10864 10858 10857 10851 10847 10845 10841 10838 10835
10693 10711 10725 10737 10747 10756 10764 10773 10779 10784 10796 10814 10820 10824 10830 10838 10843 10842 10846 10851 10855 10855 10858 10858 10858 10859 10862 10864 10865 10864 10862 10856 10856 10857 10856 10858 10852 10844 10842 10838 10835 10831 10828 10824 10822
10668 10684 10702 10716 10726 10736 10745 10755 10762 10768 10778 10792 10805 10809 10813 10822 10827 10830 10831 10837 10842 10841 10842 10843 10847 10849 10851 10852 10853 10854 10843 10842 10842 10841 10839 10835 10830 10829 10827 10823 10819 10816 10812 10808 10805